User: anonymous   Login
Location: Unspecified
(0.0000°N, 0.0000°E)
Time: 03:35:28
(UTC+00:00)
Language:

Picosat 3 - Orbit

View from above orbital plane
View from above orbital plane
View from above satellite
View from above satellite

Ground track
Ground track

The orbit data is extracted from the following two-line orbital elements,

1 26091U 00004J   17112.78929842 +.00000474 +00000-0 +14213-3 0  9992
2 26091 100.1845 191.6802 0028501 249.6536 110.1588 14.48583098905612
Epoch (UTC): 22 April 2017 18:56:35
Eccentricity: 0.0028501
inclination: 100.1845°
perigee height: 710 km
apogee height: 750 km
right ascension of ascending node: 191.6802°
argument of perigee: 249.6536°
revolutions per day: 14.48583098
mean anomaly at epoch: 110.1588°
orbit number at epoch: 90561

The dashed part of the orbit path shows where the satellite is in the earth's shadow,  

DLR